SCP
0 0 0 0 0 0 0 0 0 0 0 0 0 0 0 0 0 0 0 0 0 0 0 0 0 0 0 0 0 0 0 0 0 0 0 0 0 0 0 0 0 0 0
0 0 0 0 0 0 0 0 0 0 0 0 0 0 0 0 0 0 0 0 0 0 0 0 0 0 0 0 0 0 0 0 0 0 0 0 0 0 0 0 0 0 0
0 0 0 0 0 0 0 0 0 0 0 0 0 0 0 0 0 0 0 0 0 0 0 0 0 0 0 0 0 0 0 0 0 0 0 0 0 0 0 0 0 0 0
0 0 0 0 0 0 0 0 0 0 0 0 0 0 0 0 0 0 0 0 0 0 0 0 0 0 0 0 0 0 0 0 0 0 0 0 0 0 0 0 0 0 0
0 0 0 0 0 0 0 0 0 0 0 0 0 0 0 0 0 0 0 0 0 0 0 0 0 0 0 0 0 0 0 0 0 0 0 0 0 0 0 0 0 0 0
0 0 0 0 0 0 0 0 0 0 0 0 0 0 0 0 0 0 0 0 0 0 0 0 0 0 0 0 0 0 0 0 0 0 0 0 0 0 0 0 0 0 0
0 0 0 0 0 0 0 0 0 0 0 0 0 0 0 0 0 0 0 0 0 0 0 0 0 0 0 0 0 0 0 0 0 0 0 0 0 0 0 0 0 0 0
0 0 0 0 0 0 0 0 0 0 0 0 0 0 0 0 0 0 0 0 0 0 0 0 0 0 0 0 0 0 0 0 0 0 0 0 0 0 0 0 0 0 0
0 0 0 0 0 0 0 0 0 0 0 0 0 0 0 0 0 0 0 0 0 0 0 0 0 0 0 0 0 0 0 0 0 0 0 0 0 0 0 0 0 0 0
0 0 0 0 0 0 0 0 0 0 0 0 0 0 0 0 0 0 0 0 0 0 0 0 0 0 0 0 0 0 0 0 0 0 0 0 0 0 0 0 0 0 0
0 0 0 0 0 0 0 0 0 0 0 0 0 0 0 0 0 0 0 0 0 0 0 0 0 0 0 0 0 0 0 0 0 0 0 0 0 0 0 0 0 0 0
0 0 0 0 0 0 0 0 0 0 0 0 0 0 0 0 0 0 0 0 0 0 0 0 0 0 0 0 0 0 0 0 0 0 0 0 0 0 0 0 0 0 0
0 0 0 0 0 0 0 0 0 0 0 0 0 0 0 0 0 0 0 0 0 0 0 0 0 0 0 0 0 0 0 0 0 0 0 0 0 0 0 0 0 0 0
0 0 0 0 0 0 0 0 0 0 0 0 0 0 0 0 0 0 0 0 0 0 0 0 0 0 0 0 0 0 0 0 0 0 0 0 0 0 0 0 0 0 0
0 0 0 0 0 0 0 0 0 0 0 0 0 0 0 0 0 0 0 0 0 0 0 0 0 0 0 0 0 0 0 0 0 0 0 0 0 0 0 0 0 0 0
0 0 0 0 0 0 0 0 0 0 0 0 0 0 0 0 0 0 0 0 0 0 0 0 0 0 0 0 0 0 0 0 0 0 0 0 0 0 0 0 0 0 0
0 0 0 0 0 0 0 0 0 0 0 0 0 0 0 0 0 0 0 0 0 0 0 0 0 0 0 0 0 0 0 0 0 0 0 0 0 0 0 0 0 0 0
0 0 0 0 0 0 0 0 0 0 0 0 0 0 0 0 0 0 0 0 0 0 0 0 0 0 0 0 0 0 0 0 0 0 0 0 0 0 0 0 0 0 0
0 0 0 0 0 0 0 0 0 0 0 0 0 0 0 0 0 0 0 0 0 0 0 0 0 0 0 0 0 0 0 0 0 0 0 0 0 0 0 0 0 0 0
0 0 0 0 0 0 0 0 0 0 0 0 0 0 0 0 0 0 0 0 0 0 0 0 0 0 0 0 0 0 0 0 0 0 0 0 0 0 0 0 0 0 0
0 0 0 0 0 0 0 0 0 0 0 0 0 0 0 0 0 0 0 0 0 0 0 0 0 0 0 0 0 0 0 0 0 0 0 0 0 0 0 0 0 0 0
0 0 0 0 0 0 0 0 0 0 0 0 0 0 0 0 0 0 0 0 0 0 0 0 0 0 0 0 0 0 0 0 0 0 0 0 0 0 0 0 0 0 0
0 0 0 0 0 0 0 0 0 0 0 0 0 0 0 0 0 0 0 0 0 0 0 0 0 0 0 0 0 0 0 0 0 0 0 0 0 0 0 0 0 0 0
0 0 0 0 0 0 0 0 0 0 0 0 0 0 0 0 0 0 0 0 0 0 0 0 0 0 0 0 0 0 0 0 0 0 0 0 0 0 0 0 0 0 0
0 0 0 0 0 0 0 0 0 0 0 0 0 0 0 0 0 0 0 0 0 0 0 0 0 0 0 0 0 0 0 0 0 0 0 0 0 0 0 0 0 0 0
0 0 0 0 0 0 0 0 0 0 0 0 0 0 0 0 0 0 0 0 0 0 0 0 0 0 0 0 0 0 0 0 0 0 0 0 0 0 0 0 0 0 0
Wind_Speed
9 11 22 20 19 18 16 15 14 13 13 12 12 11 11 11 11 11 11 12 12 12 13 13 14 14 14 14 14 15 15 16 16 17 17 17 18 19 19 18 17 12 20
14 15 23 22 20 19 18 16 15 14 13 13 12 12 11 11 11 11 11 11 11 11 12 12 13 13 14 14 13 14 15 15 15 16 16 15 15 17 18 18 17 13 19
15 16 20 23 21 20 19 17 16 15 14 13 13 12 12 11 11 10 10 10 10 10 11 11 12 12 12 12 12 13 14 14 14 15 15 9 8 16 17 17 17 17 17
16 14 15 23 22 21 19 18 17 16 15 14 13 12 12 11 11 10 10 10 10 10 10 10 10 11 11 11 11 12 13 13 13 13 8 7 7 13 15 16 16 16 17
15 12 16 24 23 21 20 19 18 17 16 15 14 13 12 12 11 10 10 10 9 9 9 9 9 10 10 10 10 11 12 12 11 10 7 7 6 11 14 14 15 15 15
13 11 15 25 23 22 21 20 19 18 17 16 15 14 13 12 11 10 10 9 9 8 8 8 8 8 9 9 9 10 11 11 8 5 6 7 6 10 13 13 13 14 14
14 11 13 24 23 22 21 21 20 19 18 17 16 15 14 13 12 11 10 9 9 8 8 7 7 7 7 7 8 8 10 10 4 3 5 6 5 10 11 11 12 12 13
16 13 12 24 24 23 22 21 20 19 18 17 16 16 15 14 13 12 11 10 9 8 7 7 6 6 6 6 6 7 9 8 4 2 4 5 5 9 10 10 10 11 11
12 11 10 12 18 22 22 22 21 20 19 18 17 16 15 14 14 13 12 11 9 9 8 7 6 5 5 5 5 6 7 8 4 0 3 4 5 7 8 8 9 9 10
10 11 10 9 10 11 13 21 21 20 20 19 18 17 16 15 14 14 12 11 11 10 9 7 6 5 4 4 4 5 6 6 2 1 2 3 4 5 6 6 7 8 8
12 11 11 9 9 9 9 15 18 19 19 18 15 17 14 6 5 7 10 12 12 11 10 9 7 6 5 4 4 5 5 2 2 2 2 3 2 3 4 4 5 6 6
17 16 12 12 10 9 9 8 6 7 8 8 6 7 5 5 4 6 12 14 13 12 11 10 9 7 5 1 2 3 2 3 2 2 3 3 2 2 2 2 3 4 5
17 15 15 14 12 11 8 6 4 4 4 6 7 7 6 5 4 4 3 6 6 8 4 5 4 2 3 3 2 2 3 3 2 3 4 6 4 4 3 3 3 3 4
12 17 16 14 13 12 9 7 6 5 5 5 7 8 6 4 4 4 4 4 3 2 4 3 2 4 4 5 5 5 5 3 3 3 4 8 7 6 6 5 5 5 5
13 16 15 15 15 12 10 8 8 8 7 7 6 8 8 7 6 5 5 4 5 4 4 4 4 5 5 5 5 6 6 5 5 4 4 9 10 9 9 8 8 7 7
18 17 15 17 16 13 12 10 9 8 7 7 8 9 10 8 7 7 6 6 6 5 5 5 6 6 5 5 6 6 6 6 6 5 5 7 12 12 11 11 10 10 9
18 16 16 16 15 15 14 13 9 8 8 9 9 10 11 10 9 8 7 7 7 6 6 5 6 5 5 6 7 7 6 7 6 7 6 5 6 11 14 14 13 12 12
13 14 16 15 15 15 14 12 8 8 10 9 8 9 12 12 10 9 8 8 7 6 6 6 5 5 6 6 5 6 6 6 8 8 7 6 5 6 10 16 16 15 14
14 14 15 15 15 15 12 9 8 8 10 8 8 9 11 12 12 10 9 8 7 6 7 8 7 6 6 7 6 6 6 6 7 8 8 9 8 7 6 12 18 17 16
10 11 13 13 13 11 8 6 5 6 8 7 9 10 11 11 12 11 8 8 7 6 7 7 7 6 6 5 7 7 6 7 7 8 10 8 8 10 9 9 8 11 18
6 9 11 13 11 9 7 8 8 10 8 7 9 10 12 12 12 12 10 9 9 10 11 10 7 7 7 3 3 5 5 8 11 10 9 8 10 10 9 10 8 7 7
5 7 9 11 11 11 11 8 6 5 5 6 6 9 11 12 13 13 13 10 10 9 10 10 9 6 6 6 5 3 5 5 8 12 10 11 12 9 10 12 9 9 7
3 6 7 9 10 10 9 4 2 1 2 3 7 7 10 12 13 13 14 13 11 12 12 13 12 12 10 7 7 7 5 8 4 4 8 10 9 9 9 8 10 11 10
2 2 4 6 7 8 8 7 9 9 11 11 8 8 9 12 13 14 14 14 14 13 14 14 13 12 11 10 7 9 8 4 4 5 3 5 8 10 10 10 10 10 10
1 0 2 3 5 6 7 9 10 12 12 8 6 8 9 10 13 15 15 15 15 14 15 14 13 14 13 14 10 6 10 8 7 6 8 4 4 6 8 9 8 8 9
3 2 0 1 4 5 7 9 10 14 13 10 10 10 9 8 10 14 15 15 16 15 16 16 15 16 15 16 13 10 8 7 9 10 14 11 7 5 6 8 9 9 8
Wind_Direction
185 180 177 169 166 162 159 155 151 147 142 137 131 125 119 114 108 103 98 92 87 82 79 77 74 72 70 68 67 68 68 65 62 55 47 47 59 62 60 60 56 46 52
164 173 174 171 169 166 163 159 155 152 148 143 139 132 127 121 116 110 102 97 91 86 83 79 76 73 71 69 69 69 70 68 64 54 42 30 46 62 60 58 56 53 53
159 170 172 172 170 168 165 162 159 158 154 150 146 141 135 130 123 117 110 103 97 91 86 82 78 75 73 71 71 73 73 71 65 50 31 9 18 61 60 59 57 55 53
161 168 168 173 172 170 168 165 164 162 160 157 153 149 144 139 134 127 120 113 106 99 93 88 83 79 75 73 74 77 78 74 65 42 16 0 358 60 61 59 57 55 53
163 166 172 174 174 173 171 169 168 166 165 162 159 156 152 147 142 136 130 123 117 110 103 95 88 84 80 76 77 82 84 79 62 28 0 354 346 58 62 59 58 56 54
165 165 176 176 177 176 174 173 172 170 169 168 165 163 160 155 150 146 140 134 128 121 113 105 97 89 84 80 81 88 92 88 59 12 357 348 338 57 62 60 58 56 54
166 168 180 178 180 179 178 177 175 174 174 173 171 169 166 163 159 155 152 147 142 135 126 117 108 99 91 85 84 93 101 101 83 15 350 340 344 59 60 58 56 54 52
167 170 180 182 183 183 182 181 179 179 178 177 176 175 173 170 167 166 163 159 155 148 140 132 123 113 102 94 92 98 106 107 89 18 336 329 19 59 60 56 53 51 49
168 172 183 185 185 186 186 185 184 183 183 182 181 181 179 177 176 174 173 170 167 163 158 151 144 135 124 113 108 109 112 115 109 325 326 319 26 52 57 54 50 47 46
173 179 185 186 182 184 187 190 188 187 187 186 186 184 183 183 183 182 181 181 179 177 174 172 169 165 157 143 135 127 120 115 133 215 299 302 24 43 50 49 44 42 40
184 188 186 186 182 180 183 194 191 191 192 190 189 188 186 175 174 182 184 192 190 189 188 188 188 187 183 182 172 151 130 139 175 221 266 290 10 25 39 39 34 31 30
192 193 191 188 183 179 187 191 185 186 189 182 174 179 160 155 172 178 194 201 200 199 200 200 203 201 183 183 227 178 153 175 188 219 249 265 302 331 359 10 10 7 9
192 191 194 192 186 184 185 181 178 176 174 170 171 165 157 161 181 191 198 213 210 205 200 214 219 186 176 194 211 208 203 197 202 221 245 252 260 277 287 295 306 318 329
188 196 194 192 189 189 186 184 179 179 179 179 179 170 165 173 188 194 199 204 199 189 189 205 211 214 213 214 213 214 214 210 211 216 238 248 254 261 267 269 272 278 288
197 196 195 192 192 189 188 189 189 191 189 184 182 184 180 184 194 197 203 202 202 195 196 203 212 217 221 223 221 217 218 218 220 219 234 249 251 255 260 263 264 265 271
206 200 192 194 194 190 193 196 195 194 190 188 192 194 191 193 194 197 203 205 206 203 202 203 209 213 220 220 226 224 222 222 225 225 224 245 252 254 257 261 262 262 265
208 200 194 194 193 194 196 198 196 195 193 199 200 198 200 199 197 199 205 209 210 204 203 206 213 215 223 224 230 230 227 225 226 227 226 225 242 253 255 257 259 260 261
205 200 198 196 193 197 198 196 197 194 198 204 201 201 206 206 202 201 209 214 205 198 200 205 207 212 224 224 228 232 231 229 230 230 228 225 223 234 250 254 256 258 260
204 198 196 197 194 196 196 194 195 194 202 204 201 205 207 208 205 206 213 214 199 201 207 215 210 205 218 225 231 237 237 236 235 236 233 229 225 224 225 248 252 254 257
199 195 196 198 197 188 184 184 191 204 209 206 206 209 206 208 206 209 216 212 198 206 213 214 217 211 217 219 238 247 240 238 236 236 237 234 228 227 224 228 240 252 253
179 188 193 197 196 181 181 191 200 212 211 211 214 212 209 209 207 209 219 210 205 215 219 214 214 218 224 186 226 275 268 242 240 238 233 232 232 228 222 221 221 222 244
185 192 195 199 195 195 201 199 200 206 213 216 219 219 214 213 212 214 218 217 211 217 222 216 209 215 218 184 186 216 288 289 242 234 226 227 230 225 225 224 219 218 219
194 199 202 203 201 202 198 181 179 176 270 226 222 225 219 216 217 220 220 218 216 215 224 220 212 213 223 209 194 182 207 244 285 262 235 231 225 220 225 223 221 221 220
258 217 208 203 203 201 189 188 196 210 226 228 225 227 221 217 221 221 223 221 220 220 225 223 217 216 216 223 212 219 222 194 216 286 269 240 229 225 223 223 224 221 219
352 225 215 202 209 202 198 204 210 227 237 242 232 232 230 224 224 225 224 224 225 225 227 224 220 216 217 224 216 207 226 233 226 240 270 265 252 235 224 221 221 220 218
12 16 7 218 233 216 210 215 219 232 240 246 244 241 240 235 231 229 227 227 229 229 228 226 224 221 222 223 223 214 203 208 210 216 240 247 242 236 226 221 221 221 219